Theta_e
319 319 319 319 319 320 320 320 320 320 320 320 320 318 317 317 318 316 307 314 316 335 343 337 333 340 339 337 336 339 325 320 321 321 323 331 330 335 337 333 333 335 334 337 341
319 319 318 318 319 319 319 319 319 319 319 319 319 318 317 317 314 309 318 323 328 343 331 326 321 333 332 332 333 331 320 323 328 328 327 329 331 332 329 330 330 332 338 339 341
318 318 317 318 318 318 319 319 319 318 318 318 319 320 319 319 308 310 327 329 331 344 331 324 324 327 325 329 331 331 324 328 329 332 334 329 328 334 330 328 331 330 332 337 338
317 316 316 317 318 318 318 318 318 318 317 318 317 320 320 315 301 316 334 333 344 333 323 319 319 316 322 322 327 324 328 329 331 335 333 330 332 331 331 333 337 337 337 337 336
315 315 316 316 317 317 317 317 317 317 317 317 318 320 316 306 305 330 334 338 331 320 318 315 315 317 317 323 322 323 326 326 328 333 334 334 330 330 331 336 338 337 338 336 337
314 315 316 315 316 317 317 316 316 316 316 317 319 320 309 299 320 330 328 332 321 315 314 317 317 321 321 319 321 321 323 322 323 322 332 328 329 330 334 336 335 336 336 337 338
314 315 315 315 315 316 315 315 315 315 316 317 321 319 310 303 328 328 328 324 319 313 311 315 322 320 322 319 322 319 314 325 330 330 329 330 323 324 336 334 333 334 336 338 339
315 315 315 315 315 315 314 313 314 316 317 318 322 319 308 322 329 327 322 317 315 314 313 313 319 319 318 319 313 310 310 308 328 331 330 329 319 330 336 331 332 333 335 336 338
315 315 315 314 314 313 312 313 320 319 319 322 318 314 309 326 320 321 319 314 315 314 314 314 314 314 311 312 309 308 308 305 319 330 329 326 320 333 337 332 331 331 333 334 337
316 316 314 314 314 312 311 312 319 322 322 322 320 309 312 311 317 319 320 316 311 311 309 308 307 309 310 310 305 306 305 305 312 326 326 324 323 331 335 335 331 332 332 333 335
316 315 313 313 313 312 310 313 305 307 315 303 304 303 307 313 318 316 318 317 313 310 302 305 304 302 309 311 309 307 306 305 306 313 314 314 317 325 333 330 331 331 332 333 334
315 314 313 313 311 311 309 306 306 305 300 306 309 308 311 313 304 313 320 312 309 302 305 302 300 307 311 309 308 308 306 305 307 318 311 320 320 326 330 331 331 333 331 335 335
314 313 312 311 311 309 306 307 310 308 300 301 306 305 306 311 304 307 316 314 309 304 302 299 304 309 308 307 307 307 307 305 304 306 323 320 318 322 329 333 334 336 336 335 336
314 313 312 310 306 307 307 310 308 307 296 297 300 305 306 306 301 309 315 314 310 306 305 303 309 308 306 306 308 306 308 308 305 304 300 318 303 318 322 326 330 334 336 336 337
313 312 310 308 308 307 310 308 306 304 286 299 300 306 303 301 305 305 310 309 308 307 307 304 307 308 307 308 309 306 308 307 306 304 301 306 306 304 322 319 325 329 333 335 337
312 311 309 307 306 309 309 307 305 294 285 296 299 298 299 300 301 304 304 307 306 305 305 302 305 308 309 310 310 308 304 302 302 301 297 301 304 305 309 312 318 325 331 335 337
310 309 307 307 307 308 308 307 295 289 298 295 296 297 297 296 299 300 299 299 298 298 300 298 298 301 302 304 307 306 303 295 295 294 295 298 302 306 312 316 321 323 326 330 338
309 307 309 311 311 309 307 302 290 293 294 299 297 298 295 297 297 298 297 296 299 297 296 296 292 298 301 299 301 304 304 297 291 292 295 298 298 302 306 312 317 326 328 331 334
307 311 310 310 310 308 306 293 290 293 296 296 297 295 294 297 298 297 296 295 297 298 297 294 293 299 300 300 300 299 299 301 296 295 297 297 302 307 309 314 319 324 327 329 331
312 310 309 308 309 307 300 292 295 298 298 297 292 294 293 293 295 296 295 298 297 299 298 296 292 296 298 300 300 300 299 297 299 292 291 295 296 297 306 312 318 319 322 328 333
308 307 310 308 309 303 294 294 297 300 299 296 293 293 293 293 294 293 293 297 299 299 300 297 296 294 297 294 292 297 297 296 299 295 294 293 294 304 310 314 312 316 323 326 334
307 301 310 309 301 297 295 296 297 298 300 298 297 295 293 293 293 294 292 295 299 299 296 297 295 291 291 296 296 295 293 294 297 293 295 298 293 310 313 314 314 316 322 325 330
304 303 310 308 296 295 297 297 298 297 296 297 295 296 296 293 292 295 295 298 300 300 297 298 293 289 290 294 297 294 295 294 293 296 294 295 292 310 314 315 314 316 320 322 323
304 298 303 302 298 297 294 294 294 298 296 298 296 297 295 294 296 293 294 297 298 302 303 299 293 292 290 291 294 292 292 294 294 294 293 294 294 302 309 312 313 316 319 320 320
302 297 297 295 296 296 297 295 293 293 297 298 296 294 293 292 292 292 294 296 298 299 298 297 291 293 293 293 293 292 291 292 292 293 293 294 296 303 308 310 311 315 317 318 318
305 301 299 296 296 297 295 294 294 294 295 293 294 294 295 293 293 292 294 295 293 298 295 296 291 293 289 292 291 290 292 292 292 293 293 294 296 305 309 311 310 311 313 314 316
308 304 304 295 296 296 295 295 295 296 297 298 296 295 294 295 297 298 298 297 297 295 293 293 293 291 286 290 289 287 291 291 293 296 295 291 299 305 304 305 307 309 309 310 312
Wind_Speed
15 15 15 15 15 15 15 14 13 12 13 12 10 8 6 5 5 3 7 7 8 14 12 12 5 10 5 4 2 3 2 4 3 2 5 1 4 5 8 4 3 4 7 17 22
16 16 16 16 16 15 15 14 13 13 12 12 10 8 4 2 2 9 9 9 11 15 16 17 12 12 5 4 2 2 1 3 3 6 9 8 7 9 1 2 8 11 17 23 22
16 16 16 17 16 16 15 15 14 13 12 11 9 6 2 2 4 4 9 13 12 15 13 10 13 8 5 3 3 1 2 1 4 9 13 10 8 7 5 5 7 19 24 24 22
17 17 17 17 17 17 16 15 14 14 11 10 7 4 2 2 2 4 12 14 15 12 15 13 11 10 6 6 4 3 5 6 3 7 6 9 12 8 6 5 8 19 22 23 23
17 17 17 17 17 17 16 15 15 13 11 7 6 1 2 3 6 3 16 16 11 12 15 11 16 7 8 6 4 8 5 5 6 7 5 13 9 6 7 7 14 20 21 21 19
17 18 18 19 18 18 17 16 15 14 11 6 4 3 2 3 3 10 14 14 10 9 10 14 11 5 7 4 5 3 7 10 6 7 9 9 7 5 8 11 13 19 21 20 19
18 18 19 19 19 20 19 18 16 14 11 6 4 3 2 1 3 11 12 9 7 4 8 3 8 4 5 4 1 4 5 3 6 9 6 14 7 3 15 15 17 19 19 18 17
20 19 20 19 20 19 19 20 18 12 9 5 7 2 4 2 6 10 10 7 6 5 3 2 3 2 1 3 2 3 2 3 4 6 8 6 8 10 16 17 18 19 18 18 18
20 19 19 20 20 18 19 19 9 7 8 9 5 2 1 6 5 9 4 11 9 3 4 5 2 2 2 2 5 1 5 5 5 3 6 4 8 13 15 18 18 19 18 18 17
19 19 20 18 16 17 15 16 5 12 6 5 2 3 4 4 7 11 1 15 6 9 6 4 3 6 3 6 8 8 6 4 5 7 4 5 5 11 11 13 18 18 17 18 17
20 19 19 18 17 12 9 3 3 4 4 5 3 0 2 2 8 10 9 8 12 10 6 6 8 13 12 6 3 5 6 7 3 3 2 5 6 11 12 7 14 15 17 18 19
18 21 19 18 17 9 5 0 3 4 5 6 7 5 5 3 6 11 11 6 10 12 10 7 12 9 8 5 4 4 4 4 3 4 2 4 5 7 13 11 12 16 17 18 19
20 19 18 17 16 4 1 1 3 4 3 1 4 4 2 7 7 12 19 8 13 10 11 11 6 11 9 7 8 4 5 3 3 1 4 4 5 7 8 10 7 14 17 17 19
20 18 16 18 3 1 2 2 6 6 3 2 4 2 6 4 4 6 15 8 5 12 11 6 6 15 10 9 8 9 7 4 2 1 3 2 4 3 7 12 11 11 14 17 20
19 17 15 6 3 2 4 8 2 4 2 5 3 3 3 3 12 4 1 3 11 9 6 5 12 15 11 9 8 2 5 4 2 2 3 3 3 6 2 3 9 13 13 13 18
19 16 9 2 2 4 6 6 3 4 4 2 3 2 5 3 3 5 2 5 3 6 3 4 3 4 6 8 11 10 7 5 4 1 5 4 4 8 6 8 8 10 16 19 17
19 14 4 1 3 5 6 1 2 4 5 7 5 4 8 7 7 5 5 7 2 9 10 4 3 3 4 8 8 7 9 5 6 6 5 4 5 6 8 11 12 14 12 16 18
19 6 6 3 5 5 1 1 6 3 5 4 5 5 6 5 7 8 5 5 10 4 4 7 7 6 9 3 5 12 12 5 9 9 8 2 9 8 9 10 13 15 15 6 11
13 1 1 6 0 1 2 7 4 5 6 8 3 4 4 5 5 6 8 6 6 8 1 5 5 1 9 7 4 7 9 2 6 1 9 4 5 7 14 16 17 20 19 15 8
2 1 5 9 1 0 5 5 3 7 7 3 3 4 4 4 4 5 6 5 6 9 3 3 6 7 6 2 10 4 4 7 3 10 11 4 4 5 16 18 19 21 20 18 11
1 1 6 8 1 7 5 4 3 8 7 6 4 4 6 4 7 5 5 3 8 7 5 1 1 4 1 7 8 2 3 3 3 4 6 8 5 5 8 11 13 15 17 19 19
2 3 8 6 5 3 4 3 5 10 8 7 5 8 6 6 6 5 4 5 13 5 4 4 5 6 5 2 3 5 3 2 7 6 3 2 6 5 7 9 10 14 17 18 20
3 2 4 4 4 4 4 5 8 11 9 8 7 8 6 4 5 4 3 5 12 6 4 2 3 6 3 4 3 4 5 3 3 1 4 6 6 5 7 10 12 14 15 16 19
3 3 5 7 3 4 3 4 4 6 8 7 6 3 3 6 8 5 3 4 7 8 11 3 5 4 1 5 2 2 4 5 4 4 8 4 12 5 9 11 12 14 14 16 17
4 4 2 4 7 7 3 3 4 5 5 10 6 10 4 4 3 4 3 3 7 11 5 5 6 6 9 6 2 1 2 4 5 4 3 10 8 6 7 9 10 10 12 15 18
3 2 3 3 2 5 5 4 7 4 6 7 7 9 8 5 4 4 1 4 4 7 4 4 5 5 3 3 3 4 5 5 2 1 3 4 5 4 5 6 9 11 13 15 15
1 2 0 3 3 2 3 2 3 2 6 7 4 6 9 7 4 5 6 5 4 3 4 3 6 3 4 2 2 5 4 5 1 2 0 4 6 4 4 6 9 9 11 12 14
Wind_Direction
348 346 344 341 340 339 338 339 337 338 333 329 329 328 315 308 289 199 235 222 177 165 156 141 127 139 155 168 215 252 231 82 78 51 120 47 94 48 328 153 79 189 140 138 149
345 343 341 338 336 335 334 333 334 335 333 329 328 326 314 290 255 244 239 200 194 159 152 157 149 153 154 177 199 272 346 54 89 127 123 118 121 128 315 205 72 97 121 140 151
342 341 337 333 332 331 331 329 329 331 331 328 326 333 301 258 264 238 181 189 176 174 150 145 140 147 149 176 187 229 219 207 119 111 134 135 133 163 199 188 162 148 143 149 157
340 336 333 331 329 328 326 325 325 326 328 324 321 328 283 234 174 13 154 162 159 160 144 139 156 158 168 180 206 256 250 271 172 154 141 153 139 167 146 15 153 147 150 152 160
338 332 330 330 326 324 321 320 319 319 319 320 309 273 245 242 263 47 146 144 137 157 162 153 162 150 174 183 182 230 265 256 244 191 136 140 147 132 113 99 137 145 155 158 163
336 331 330 329 326 323 320 318 316 312 308 301 292 166 217 247 8 139 141 138 142 151 146 159 174 158 157 177 212 235 256 296 300 203 149 134 131 153 120 129 152 158 161 167 172
332 329 331 328 325 325 320 315 310 301 290 277 203 237 205 335 5 140 138 147 149 136 145 153 175 175 154 171 254 274 276 131 70 129 129 126 127 253 144 153 164 168 168 174 180
329 327 329 328 326 323 319 314 302 282 257 217 163 154 247 30 136 145 140 107 125 76 145 124 140 137 236 318 191 234 217 162 125 146 145 310 120 143 160 159 172 173 175 178 183
322 324 328 329 326 324 321 313 321 138 170 155 144 131 112 124 162 174 177 149 150 126 52 148 154 179 195 198 161 173 154 128 136 163 162 285 109 153 170 172 176 179 183 183 184
321 323 329 330 324 323 315 303 359 104 125 170 221 195 204 186 146 153 117 142 133 145 118 131 155 195 177 198 174 159 142 104 123 155 139 163 98 138 172 187 184 182 183 190 190
322 324 331 328 324 320 307 189 181 137 209 249 140 122 293 43 132 169 163 129 127 154 158 163 187 197 187 200 93 118 128 122 91 92 209 197 174 173 161 157 179 178 189 187 193
324 329 333 329 326 326 171 200 72 2 299 232 246 274 258 252 122 138 178 146 159 155 142 157 211 188 187 202 192 151 148 122 99 46 209 140 114 196 191 181 181 185 191 198 191
330 334 332 329 326 176 264 155 353 189 236 286 206 211 176 179 139 164 179 156 164 160 172 180 189 168 181 177 185 168 197 164 90 66 93 148 123 147 201 199 178 195 199 201 204
335 334 334 328 242 360 227 346 321 194 299 109 199 192 145 196 97 150 186 156 168 177 175 198 157 175 183 190 201 204 202 190 155 233 133 311 133 97 171 208 212 199 202 204 203
336 333 330 316 313 216 20 337 148 219 141 337 135 91 118 189 132 132 193 177 163 148 187 146 164 182 191 198 189 163 169 196 155 146 205 210 226 34 153 193 253 250 227 219 215
332 328 328 172 231 281 332 334 212 241 71 13 359 116 138 67 72 113 111 48 77 138 213 91 89 176 202 181 179 141 109 80 84 197 207 176 283 54 38 352 335 333 256 224 214
325 315 212 244 351 343 320 202 189 36 335 2 358 18 87 30 57 48 48 43 82 163 183 119 69 62 20 156 162 169 177 144 171 195 186 89 117 62 25 20 12 356 329 238 216
322 296 199 237 299 321 218 154 65 6 6 349 349 56 79 22 41 33 75 73 38 359 133 171 153 9 0 12 183 189 200 200 177 187 156 120 144 101 34 18 11 17 22 3 231
317 211 31 350 211 224 99 56 30 341 331 328 316 93 77 61 114 88 54 37 22 358 239 150 94 26 48 30 312 146 199 42 107 29 187 116 112 195 14 17 16 17 12 5 337
344 18 25 340 100 113 71 88 63 13 324 300 61 3 106 30 98 83 35 18 352 15 290 122 124 26 13 309 50 358 94 175 211 168 180 114 122 47 0 2 6 9 9 2 352
25 50 9 358 261 51 69 61 16 4 12 26 41 81 69 60 53 69 23 74 358 339 30 28 335 57 58 35 13 3 132 64 93 338 175 161 126 24 17 13 10 5 12 13 18
66 46 358 331 52 33 60 27 1 354 15 50 69 53 55 43 60 86 96 5 343 317 32 19 77 75 95 331 337 32 59 341 231 171 56 337 116 32 38 41 21 21 18 24 29
65 355 2 318 82 73 84 77 46 23 26 23 43 45 52 64 107 75 92 5 7 42 23 14 45 125 161 203 156 54 34 58 97 341 166 199 132 72 60 52 40 32 28 32 31
80 41 14 46 26 74 96 44 90 46 51 54 32 52 93 55 41 111 103 32 9 26 37 65 64 337 60 65 43 126 46 40 348 204 142 59 135 93 48 48 39 38 38 37 39
25 70 10 21 41 66 75 42 51 38 45 31 47 37 43 97 77 77 48 24 58 8 43 42 91 87 74 74 63 15 2 24 50 79 323 132 125 88 54 41 35 39 42 39 36
86 137 82 73 341 50 27 42 62 60 19 39 83 45 59 84 42 115 88 31 27 356 46 20 115 129 75 37 14 290 284 301 312 120 127 129 122 80 77 69 48 35 35 33 27
86 98 117 13 49 59 33 69 77 104 66 64 81 104 73 64 67 64 69 75 54 13 42 44 137 149 145 349 315 250 254 218 119 86 149 202 83 117 85 48 37 32 32 25 13